This demonstration page uses our WeatherBlox Daily Observations layout. Learn more.

38.80484, -77.04692

Hourly Observations for August 10, 2019

Temp ( °F °C ) Dew Point ( °F °C ) Humidity (%) Winds ( mph kmh ) Pressure ( in mb ) Visibility ( mi km ) Precip ( " mm )
12:52 am 00:52 Mostly Cloudy 76 24.4 53 11.7 45 45 NNW 10 17 29.85 1011 10 16.09344 0 0
1:52 am 01:52 Mostly Cloudy 74 23.3 53 11.7 48 48 NNW 15 24 29.88 1012 10 16.09344 0 0
2:52 am 02:52 Mostly Cloudy 73 22.8 53 11.7 50 50 NW 10 17 29.88 1012 10 16.09344 0 0
3:52 am 03:52 Mostly Cloudy 70 21.1 54 12.2 57 57 N 6 9 29.88 1012 10 16.09344 0 0
4:52 am 04:52 Mostly Cloudy 69 20.6 54 12.2 59 59 N 8 13 29.88 1012 10 16.09344 0 0
5:52 am 05:52 Mostly Clear 67 19.4 54 12.2 63 63 NNW 7 11 29.88 1012 10 16.09344 0 0
6:52 am 06:52 Mostly Cloudy 68 20 55 12.8 63 63 SW 6 9 29.91 1013 10 16.09344 0 0
7:52 am 07:52 Mostly Cloudy 71 21.7 55 12.8 57 57 W 7 11 29.91 1013 10 16.09344 0 0
8:52 am 08:52 Mostly Cloudy 75 23.9 55 12.8 50 50 NW 6 9 29.94 1014 10 16.09344 0 0
9:52 am 09:52 Mostly Cloudy 78 25.6 54 12.2 43 43 NW 5 7 29.91 1013 10 16.09344 0 0
10:52 am 10:52 Mostly Cloudy 80 26.7 55 12.8 42 42 NNW 9 15 29.94 1014 10 16.09344 0 0
11:52 am 11:52 Mostly Cloudy 81 27.2 54 12.2 39 39 NW 9 15 29.91 1013 10 16.09344 0 0
12:52 pm 12:52 Mostly Cloudy 81 27.2 55 12.8 41 41 NW 10 17 29.91 1013 10 16.09344 0 0
1:52 pm 13:52 Mostly Cloudy 80 26.7 56 13.3 44 44 NNW 15 24 29.91 1013 10 16.09344 0 0
2:52 pm 14:52 Mostly Cloudy 83 28.3 55 12.8 38 38 VRB 3 6 29.88 1012 10 16.09344 0 0
3:52 pm 15:52 Mostly Cloudy 83 28.3 52 11.1 34 34 W 7 11 29.88 1012 10 16.09344 0 0
4:52 pm 16:52 Partly Cloudy 85 29.4 57 13.9 39 39 VRB 7 11 29.85 1011 10 16.09344 0 0
5:52 pm 17:52 Mostly Sunny 84 28.9 53 11.7 34 34 N 13 20 29.85 1011 10 16.09344 0 0
6:52 pm 18:52 Mostly Sunny 83 28.3 52 11.1 34 34 VRB 6 9 29.85 1011 10 16.09344 0 0
7:52 pm 19:52 Mostly Sunny 82 27.8 54 12.2 38 38 NW 9 15 29.88 1012 10 16.09344 0 0
8:52 pm 20:52 Mostly Clear 81 27.2 53 11.7 38 38 WNW 7 11 29.91 1013 10 16.09344 0 0
9:52 pm 21:52 Partly Cloudy 80 26.7 53 11.7 39 39 VRB 5 7 29.91 1013 10 16.09344 0 0
10:52 pm 22:52 Mostly Cloudy 80 26.7 54 12.2 41 41 WNW 7 11 29.94 1014 10 16.09344 0 0
11:52 pm 23:52 Mostly Clear 74 23.3 57 13.9 56 56 N 6 9 29.94 1014 10 16.09344 0 0

Powered by AerisWeather